Regional Weather Roundup
Issued by NWS

Home | Current Version | Previous Version | Graphics & Text | Print | Product List | Glossary On
Versions: 1 2 3 4 5 6 7 8 9 10 11 12 13 14 15 16 17 18 19 20 21 22 23 24 25 26 27 28 29 30 31 32 33 34 35 36 37 38 39 40 41 42 43 44 45 46 47 48 49 50
000
ASUS45 KTFX 290119
RWRMT
MONTANA HOURLY WEATHER ROUNDUP
NATIONAL WEATHER SERVICE GREAT FALLS MT
719 PM MDT THU AUG 28 2014

NOTE: "FAIR" INDICATES FEW OR NO CLOUDS BELOW 12000 FEET WITH NO
SIGNIFICANT WEATHER AND/OR OBSTRUCTIONS TO VISIBILITY.

* THESE STATIONS ARE NOT UNDER NWS QUALITY CONTROL. THEY DO NOT
   REPORT WEATHER SUCH AS PRECIPITATION OR FOG.

MTZ001>007-043-290200-
WEST OF THE DIVIDE
CITY           SKY/WX    TMP DP  RH WIND       PRES   REMARKS
KALISPELL      MOCLDY    81  43  26 SW13      29.92S
MISSOULA       CLOUDY    79  37  22 W16       29.98R
BUTTE          PTCLDY    77  37  24 NW12G23   30.06S
MULLAN PASS    MOCLDY    61  37  41 SW8       30.15S
* LINCOLN      N/A       79  36  21 SW6G20     N/A
* LOOKOUT PASS N/A       68  38  33 SE6G12     N/A
* POLSON       N/A       77  45  32 SW3        N/A
* RONAN APT    CLOUDY    79  45  30 SW9        N/A
* SEELEY LAKE  N/A       77  35  22 NW6G16     N/A
* THOMP F APT  MOCLDY    74  41  31 S9G17      N/A
$$

MTZ008-052>055-290200-
SOUTHWEST MONTANA
CITY           SKY/WX    TMP DP  RH WIND       PRES   REMARKS
BOZEMAN        PTCLDY    79  43  28 W8        29.95F
DILLON         PTCLDY    82  41  23 NW9       30.01F
W YELLOWSTONE  PTCLDY    68  45  44 SW8       30.18S
* THREE FORKS  PTCLDY    82  61  49 W6         N/A   HI  83
* BOULDER HILL N/A       75  34  22 NW2G11     N/A
* MONIDA PASS  N/A       69  42  38 S16G21     N/A
* RAYNOLDS PAS N/A       72  59  64 SW9G14     N/A
* WHITEHALL    N/A       83  41  23 NW7G17     N/A
* WISE RIVER   N/A       78  36  22 NW12G21    N/A
$$

MTZ009>010-012-014-046-048-049-054-290200-
EAST SLOPES AND CENTRAL MONTANA
CITY           SKY/WX    TMP DP  RH WIND       PRES   REMARKS
CUT BANK       CLOUDY    63  50  63 N31G45    29.99R
GREAT FALLS    PTCLDY    84  30  14 W18G24    29.88S
HELENA         PTCLDY    84  37  19 W16G21    29.93R
MALMSTROM AFB  PTCLDY    82  36  19 W14G23    29.89S
* CONRAD       CLOUDY    79  54  42 NW9        N/A
* EAST GLACIER N/A       57  49  75 NE28G37    N/A
* MONARCH      N/A       76  34  22 W17G22     N/A
* PENDROY      N/A       76  39  26 NW18G26    N/A
* ROGERS PASS  N/A       71  30  22 SW2        N/A
* SAINT MARY   N/A       55  47  75 NE12G28    N/A
* SWEET GRASS  N/A       55  55 100 NE28G37    N/A
* WHITE SULPH  N/A       78  45  31 W7G16      N/A
$$

MTZ011-013-016-021-035-040-045-047-050-051-290200-
NORTH CENTRAL MONTANA
CITY           SKY/WX    TMP DP  RH WIND       PRES   REMARKS
HAVRE          MOCLDY    77  52  42 N7        29.83F
LEWISTOWN      PTCLDY    81  45  28 N/A       29.93S
* CHINOOK      PTCLDY    79  54  42 N5        29.81F
* FORT BENTON  PTCLDY    81  48  32 NW8       29.84R
* CHESTER      N/A       72  53  51 NE8G15     N/A
* DENTON       N/A       84  40  21 W14G19     N/A
* GEYSER       N/A       82  41  23 W14G20     N/A
* JUDITH GAP   N/A       79  42  27 W6G11      N/A
* LOMA         N/A       83  49  31 N11        N/A
$$

MTZ017>020-022>027-061-062-290200-
NORTHEAST MONTANA
CITY           SKY/WX    TMP DP  RH WIND       PRES   REMARKS
GLASGOW        CLEAR     82  50  33 NW9       29.81S
GLENDIVE       CLEAR     79  55  44 NW7       29.83F
JORDAN         CLEAR     84  50  31 N6        29.84S
SIDNEY         CLEAR     77  55  47 W6        29.80S
WOLF POINT     CLEAR     84  50  31 W8        29.79S
* BEAVER HILL  N/A       82  51  34 W7         N/A
* CIRCLE       N/A       83  53  36 NW2        N/A
* LINDSAY DVD  N/A       81  51  35 NW6        N/A
* NAVAJO       N/A       82  48  31 W12G18     N/A
$$

MTZ028>042-056>058-290200-
SOUTHCENTRAL AND SOUTHEAST MONTANA
CITY           SKY/WX    TMP DP  RH WIND       PRES   REMARKS
BAKER          CLEAR     81  52  37 NW5       29.87F
BILLINGS       FAIR      84  45  26 NE3       29.90F
LIVINGSTON     PTCLDY    82  39  22 W10       29.95F
MILES CITY     CLEAR     84  45  26 W8        29.84S
* LAUREL APT   CLEAR     84  46  26 N/A        N/A
* ROUNDUP APT  CLEAR     84  43  24 N/A        N/A
* ALZADA       N/A       81  46  29 NW4        N/A
* HYSHAM       N/A       84  42  23 NE4G9      N/A
* LAME DEER    N/A       79  43  28 NW5G12     N/A
* REED POINT   N/A       87  42  21 W4G9       N/A
* ROSCOE HILL  N/A       76  31  19 E8         N/A
$$

REGIONAL REPORTS...DAKOTAS
CITY           SKY/WX    TMP DP  RH WIND       PRES   REMARKS
WILLISTON      PTCLDY    88  48  25 W8        29.76S
DICKINSON      PTCLDY    81  61  51 CALM      29.83S HI  82
BEACH          N/A       79  55  44 W6        29.85S
TIOGA          FAIR      73  59  62 N5        29.80S
BISMARCK       CLOUDY    72  66  81 SE8       29.85S
GRAND FORKS    CLOUDY    72  64  76 S14       29.85S
FARGO          CLOUDY    66  64  93 SE10      29.87F
BUFFALO SD     PTCLDY    81  54  39 E6        29.83S
RAPID CITY     CLOUDY    73  63  71 E5        29.92S
$$

REGIONAL REPORTS...WYOMING/IDAHO/WASHINGTON
CITY           SKY/WX    TMP DP  RH WIND       PRES   REMARKS
GILLETTE       CLEAR     79  46  31 N7        29.98F
SHERIDAN       CLEAR     81  46  29 NW6       29.95F
CODY           PTCLDY    75  43  32 S7        30.01F
YELLOWSTONE LA PTCLDY    63  43  48 W8        30.28F
SALMON         PTCLDY    79  55  44 CALM      29.93S
MULLAN PASS    MOCLDY    61  37  41 SW8       30.15S
SPOKANE        MOCLDY    81  36  20 SW16      29.95S
$$

REGIONAL REPORTS...ALBERTA
CITY           SKY/WX    TMP DP  RH WIND       PRES   REMARKS
CALGARY        PTCLDY    54  45  72 W5        30.07R
LETHBRIDGE     LGT RAIN  54  50  86 N10G20    30.04R
MEDICINE HAT   LGT RAIN  55  54  96 N12G20    29.99R
EDMONTON       FAIR      66  37  34 NW6       29.98S
WATERTON GATE  N/A       50  48  93 N7         N/A
CARDSTON       N/A       50  50 100 N12        N/A
MILK RIVER     N/A       54  52  93 N25G35     N/A
$$

REGIONAL REPORTS...SASKATCHEWAN
CITY           SKY/WX    TMP DP  RH WIND       PRES   REMARKS
SWIFT CURRENT  MOCLDY    68  54  61 N7        29.85S
REGINA         MOCLDY    72  55  55 N15G21    29.80R
VAL MARIE      N/A       73  57  57 NW7        N/A
ASSINIBOIA     N/A       72  55  55 N15        N/A
CORONACH       N/A       77  54  45 NW13G18    N/A

$$



USA.gov is the U.S. government's official web portal to all federal, state and local government web resources and services.